GW5308 Weather Reports


time (UTC)temp
C
wind
direction
speed
KPH
gust
KPH
rain 1hr
cm
rain 24hr
cm
rain mn
cm
humidity
%
barometer
mb
20260903205523 30 0 0.0 3.2 0.00 1.40 1.40 85 1012.0
20260903205020 30 0 0.0 3.2 0.00 1.40 1.40 83 1012.0
20260903204541 31 0 0.0 1.6 0.00 1.40 1.40 85 1012.0
20260903204017 31 0 0.0 3.2 0.00 1.40 1.40 84 1012.1
20260903203520 31 0 0.0 3.2 0.00 1.40 1.40 85 1012.2
20260903203044 31 76 0.0 1.6 0.00 1.40 1.40 83 1012.2
20260903202520 31 0 0.0 1.6 0.00 1.40 1.40 82 1012.3
20260903202022 31 0 0.0 4.8 0.00 1.40 1.40 84 1012.5
20260903201535 31 0 0.0 4.8 0.00 1.40 1.40 83 1012.5
20260903201021 31 352 0.0 3.2 0.00 1.40 1.40 84 1012.6
20260903200520 31 0 0.0 3.2 0.00 1.40 1.40 86 1012.7
20260903200039 31 5 0.0 3.2 0.00 1.40 1.40 84 1012.7
20260903195519 31 0 0.0 4.8 0.00 1.40 1.40 87 1012.8
20260903195019 31 0 0.0 4.8 0.00 1.40 1.40 85 1012.9
20260903194538 31 4 0.0 3.2 0.00 1.40 1.40 83 1013.0
20260903194025 31 0 0.0 1.6 0.00 1.40 1.40 85 1013.0
20260903193521 30 0 0.0 3.2 0.00 1.40 1.40 88 1013.1
20260903193038 30 0 0.0 3.2 0.00 1.40 1.40 86 1013.2
20260903192520 30 0 0.0 3.2 0.00 1.40 1.40 86 1013.2
20260903192020 30 0 0.0 8.0 0.00 1.40 1.40 87 1013.3
20260903191544 30 0 3.2 8.0 0.00 1.40 1.40 85 1013.2
20260903191020 30 0 0.0 9.7 0.00 1.40 1.40 87 1013.3
20260903190520 30 322 1.6 9.7 0.00 1.40 1.40 86 1013.4
20260903190041 30 336 0.0 6.4 0.00 1.40 1.40 86 1013.5
20260903185519 30 8 0.0 4.8 0.00 1.42 1.40 86 1013.5
20260903185019 30 0 0.0 4.8 0.00 1.42 1.40 88 1013.6
20260903184538 30 8 0.0 6.4 0.00 1.42 1.40 88 1013.6
20260903184021 30 11 0.0 6.4 0.00 1.42 1.40 89 1013.6
20260903183520 30 120 1.6 6.4 0.00 1.42 1.40 88 1013.6
20260903183036 30 43 0.0 6.4 0.00 1.42 1.40 90 1013.6
20260903182521 30 0 0.0 6.4 0.00 1.42 1.40 91 1013.6
20260903182020 30 0 1.6 6.4 0.00 1.42 1.40 90 1013.7
20260903181540 30 276 0.0 3.2 0.00 1.42 1.40 89 1013.7
20260903181019 30 0 0.0 4.8 0.00 1.42 1.40 93 1013.8
20260903180519 29 0 0.0 4.8 0.00 1.42 1.40 93 1013.8
20260903180040 29 0 0.0 4.8 0.00 1.42 1.40 96 1013.9
20260903175519 28 0 0.0 3.2 0.00 1.42 1.40 98 1014.0
20260903175020 28 0 0.0 6.4 0.00 1.42 1.40 99 1014.0
20260903174539 28 0 0.0 6.4 0.00 1.42 1.40 99 1014.0
20260903174020 28 0 0.0 0.0 0.00 1.42 1.40 100 1014.1
20260903173521 28 0 0.0 0.0 0.00 1.42 1.40 99 1014.1
20260903173038 28 0 0.0 0.0 0.00 1.42 1.40 100 1014.1
20260903172518 28 0 0.0 0.0 0.00 1.42 1.40 100 1014.1
20260903172019 28 0 0.0 0.0 0.00 1.42 1.40 100 1014.2
20260903171545 28 0 0.0 0.0 0.00 1.42 1.40 100 1014.3
20260903171019 27 0 0.0 0.0 0.00 1.42 1.40 100 1014.3
20260903170520 27 0 0.0 0.0 0.00 1.42 1.40 100 1014.3
20260903170047 27 0 0.0 0.0 0.00 1.42 1.40 100 1014.3
20260903165519 27 0 0.0 0.0 0.00 1.42 1.40 100 1014.3
20260903165019 27 0 0.0 0.0 0.00 1.42 1.40 100 1014.5
20260903164542 27 0 0.0 0.0 0.00 1.42 1.40 100 1014.6
20260903164017 27 0 0.0 0.0 0.00 1.42 1.40 100 1014.7
20260903163521 27 0 0.0 0.0 0.00 1.42 1.40 100 1015.0
20260903163054 27 0 0.0 0.0 0.00 1.42 1.40 100 1015.0
20260903162520 27 0 0.0 1.6 0.00 1.42 1.40 100 1015.0
20260903162024 26 0 0.0 1.6 0.00 1.42 1.40 100 1015.1
20260903161542 27 269 0.0 1.6 0.03 1.42 1.40 100 1015.0
20260903161019 27 0 0.0 0.0 0.08 1.42 1.40 100 1015.0
20260903160518 26 0 0.0 3.2 0.10 1.42 1.40 100 1014.9
20260903160041 26 0 0.0 4.8 0.10 1.42 1.40 100 1014.8
20260903155518 26 0 0.0 4.8 0.15 1.45 1.40 100 1014.6
20260903155018 26 0 0.0 4.8 0.15 1.45 1.40 100 1014.7
20260903154538 26 0 0.0 3.2 0.15 1.45 1.40 100 1014.6
20260903154019 26 0 0.0 3.2 0.20 1.45 1.40 100 1014.6
20260903153524 26 0 0.0 1.6 0.30 1.45 1.40 100 1014.6
20260903153038 27 0 0.0 1.6 0.58 1.45 1.40 100 1014.6
20260903152520 26 0 0.0 1.6 0.94 1.45 1.40 100 1014.5
20260903152019 26 0 0.0 1.6 1.07 1.45 1.40 100 1014.5
20260903151542 26 0 0.0 1.6 1.32 1.40 1.32 100 1014.7
20260903151019 26 334 0.0 1.6 1.32 1.37 1.32 100 1014.9
20260903150521 26 0 0.0 1.6 1.30 1.32 1.30 100 1014.9
20260903150042 25 0 0.0 1.6 1.27 1.32 1.27 100 1014.8
20260903145517 25 0 0.0 1.6 1.24 1.45 1.24 100 1014.8
20260903145023 25 0 0.0 0.0 1.24 1.45 1.24 100 1014.8
20260903144538 25 0 0.0 0.0 1.24 1.45 1.24 100 1014.8
20260903144021 25 0 0.0 1.6 1.19 1.40 1.19 100 1014.7
20260903143519 26 0 0.0 3.2 1.04 1.24 1.04 99 1014.7
20260903143036 27 9 0.0 3.2 0.74 0.94 0.74 96 1014.7
20260903142526 27 0 0.0 1.6 0.43 0.64 0.43 97 1014.7
20260903142019 28 266 0.0 1.6 0.30 0.51 0.30 94 1014.8
20260903141541 28 0 0.0 0.0 0.00 0.20 0.00 92 1014.7
20260903141018 28 0 0.0 0.0 0.00 0.20 0.00 93 1014.6
20260903140523 28 0 0.0 0.0 0.00 0.20 0.00 91 1014.6
20260903140045 28 0 0.0 0.0 0.00 0.20 0.00 90 1014.5
20260903135519 29 0 0.0 0.0 0.00 0.20 0.00 91 1014.5
20260903135019 29 0 0.0 0.0 0.00 0.20 0.00 90 1014.4
20260903134538 29 0 0.0 0.0 0.00 0.20 0.00 92 1014.4
20260903134022 28 0 0.0 3.2 0.00 0.20 0.00 92 1014.4
20260903133521 28 0 0.0 4.8 0.00 0.20 0.00 92 1014.4
20260903133040 28 0 0.0 4.8 0.00 0.20 0.00 92 1014.4
20260903132522 28 0 0.0 4.8 0.00 0.20 0.00 93 1014.4
20260903132019 28 4 0.0 1.6 0.00 0.20 0.00 94 1014.4
20260903131541 28 0 0.0 3.2 0.00 0.20 0.00 95 1014.3
20260903131020 28 0 0.0 3.2 0.00 0.20 0.00 97 1014.4
20260903130520 27 0 0.0 6.4 0.00 0.20 0.00 99 1014.4
20260903130040 27 0 0.0 6.4 0.00 0.20 0.00 100 1014.3
20260903125525 27 38 1.6 6.4 0.00 0.20 0.00 100 1014.2
20260903125016 26 0 0.0 0.0 0.00 0.20 0.00 100 1014.2
20260903124538 26 0 0.0 0.0 0.00 0.20 0.00 100 1014.2
20260903124020 26 0 0.0 0.0 0.00 0.20 0.00 100 1014.2
20260903123525 26 0 0.0 0.0 0.00 0.20 0.00 100 1014.2
20260903123040 25 0 0.0 0.0 0.00 0.20 0.00 100 1014.3
20260903122519 25 0 0.0 0.0 0.00 0.20 0.00 100 1014.4
20260903122020 25 0 0.0 0.0 0.00 0.20 0.00 100 1014.4
20260903121549 25 0 0.0 0.0 0.00 0.20 0.00 100 1014.4
20260903121020 25 0 0.0 0.0 0.00 0.20 0.00 100 1014.3
20260903120519 25 0 0.0 0.0 0.00 0.20 0.00 100 1014.3
20260903120048 24 0 0.0 0.0 0.00 0.20 0.00 100 1014.1
20260903115517 24 0 0.0 0.0 0.00 0.20 0.00 100 1014.2
20260903115019 23 0 0.0 0.0 0.00 0.20 0.00 100 1014.1
20260903114550 23 0 0.0 0.0 0.00 0.20 0.00 100 1014.0
20260903114020 23 0 0.0 0.0 0.00 0.20 0.00 100 1013.9
20260903113521 23 0 0.0 0.0 0.00 0.20 0.00 100 1013.9
20260903113041 23 0 0.0 0.0 0.00 0.20 0.00 100 1013.9
20260903112518 23 0 0.0 0.0 0.00 0.20 0.00 100 1013.8
20260903112020 23 0 0.0 0.0 0.00 0.20 0.00 100 1013.6
20260903111541 23 0 0.0 0.0 0.00 0.20 0.00 100 1013.5
20260903111018 23 0 0.0 0.0 0.00 0.20 0.00 100 1013.4
20260903110519 23 0 0.0 0.0 0.00 0.20 0.00 100 1013.4
20260903110035 23 0 0.0 0.0 0.00 0.20 0.00 100 1013.3
20260903105520 23 0 0.0 0.0 0.00 0.20 0.00 100 1013.3
20260903105025 23 0 0.0 0.0 0.00 0.20 0.00 100 1013.2
20260903104539 23 0 0.0 0.0 0.00 0.20 0.00 100 1013.1
20260903104019 23 0 0.0 0.0 0.00 0.20 0.00 100 1013.0
20260903103518 23 0 0.0 0.0 0.00 0.20 0.00 100 1013.1
20260903103042 23 0 0.0 0.0 0.00 0.20 0.00 100 1013.0
20260903102520 23 0 0.0 0.0 0.00 0.20 0.00 100 1013.0
20260903102020 23 0 0.0 0.0 0.00 0.20 0.00 100 1013.0
20260903101541 23 0 0.0 0.0 0.00 0.20 0.00 100 1013.0
20260903101017 23 0 0.0 0.0 0.00 0.20 0.00 100 1012.9
20260903100517 23 0 0.0 0.0 0.00 0.20 0.00 100 1012.9
20260903100045 23 0 0.0 0.0 0.00 0.20 0.00 100 1012.8
20260903095520 23 0 0.0 0.0 0.00 0.20 0.00 100 1012.8
20260903095021 23 0 0.0 0.0 0.00 0.20 0.00 100 1012.8
20260903094538 23 0 0.0 0.0 0.00 0.20 0.00 100 1012.7
20260903094020 23 0 0.0 0.0 0.00 0.20 0.00 100 1012.6
20260903093520 23 0 0.0 0.0 0.00 0.20 0.00 100 1012.5
20260903093041 23 0 0.0 0.0 0.00 0.20 0.00 100 1012.6
20260903092522 23 0 0.0 0.0 0.00 0.20 0.00 100 1012.7
20260903092020 23 0 0.0 0.0 0.00 0.20 0.00 100 1012.6
20260903091539 23 0 0.0 0.0 0.00 0.20 0.00 100 1012.5
20260903091016 23 0 0.0 0.0 0.00 0.20 0.00 100 1012.6
20260903090517 23 0 0.0 0.0 0.00 0.20 0.00 100 1012.6
20260903090037 23 0 0.0 0.0 0.00 0.20 0.00 100 1012.6
20260903085520 23 0 0.0 0.0 0.00 0.20 0.00 100 1012.8
20260903085021 23 0 0.0 0.0 0.00 0.20 0.00 100 1012.8
20260903084540 23 0 0.0 0.0 0.00 0.20 0.00 100 1012.8
20260903084022 23 0 0.0 0.0 0.00 0.20 0.00 100 1012.8
20260903083520 24 0 0.0 0.0 0.00 0.20 0.00 100 1012.7
20260903083045 24 0 0.0 0.0 0.00 0.20 0.00 100 1012.7
20260903082518 24 0 0.0 0.0 0.00 0.20 0.00 100 1012.7
20260903082025 24 0 0.0 0.0 0.00 0.20 0.00 100 1012.5
20260903081536 24 0 0.0 0.0 0.00 0.20 0.00 100 1012.6
20260903081020 24 0 0.0 0.0 0.00 0.20 0.00 100 1012.5
20260903080519 24 0 0.0 0.0 0.00 0.20 0.00 100 1012.5
20260903080040 24 0 0.0 0.0 0.00 0.20 0.00 100 1012.5
20260903075521 23 0 0.0 0.0 0.00 0.20 0.00 100 1012.5
20260903075019 23 0 0.0 0.0 0.00 0.20 0.00 100 1012.7
20260903074539 24 0 0.0 0.0 0.00 0.20 0.00 100 1012.7
20260903074019 24 0 0.0 0.0 0.00 0.20 0.00 100 1012.7
20260903073519 23 0 0.0 0.0 0.00 0.20 0.00 100 1012.8
20260903073047 23 0 0.0 0.0 0.00 0.20 0.00 100 1012.7
20260903072519 23 0 0.0 0.0 0.00 0.20 0.00 100 1012.8
20260903072021 23 0 0.0 0.0 0.00 0.20 0.00 100 1012.8
20260903071538 23 0 0.0 0.0 0.00 0.20 0.00 100 1012.9
20260903071020 23 0 0.0 0.0 0.00 0.20 0.00 100 1013.1
20260903070519 23 0 0.0 0.0 0.00 0.20 0.00 100 1013.2
20260903070041 23 0 0.0 0.0 0.00 0.20 0.00 100 1013.0
20260903065519 23 0 0.0 0.0 0.00 0.20 0.00 100 1013.1
20260903065025 24 0 0.0 0.0 0.00 0.20 0.00 100 1013.1
20260903064539 23 0 0.0 0.0 0.00 0.20 0.00 100 1013.2
20260903064021 23 0 0.0 0.0 0.00 0.20 0.00 100 1013.2
20260903063521 23 0 0.0 0.0 0.00 0.20 0.00 100 1013.3
20260903063037 24 0 0.0 0.0 0.00 0.20 0.00 100 1013.3
20260903062520 24 0 0.0 0.0 0.00 0.20 0.00 100 1013.4
20260903062020 24 0 0.0 0.0 0.00 0.20 0.00 100 1013.6
20260903061556 24 0 0.0 0.0 0.00 0.20 0.00 100 1013.7
20260903061022 24 0 0.0 0.0 0.00 0.20 0.00 100 1013.6
20260903060519 24 0 0.0 0.0 0.00 0.20 0.00 100 1013.7
20260903060040 24 0 0.0 0.0 0.00 0.20 0.00 100 1013.7
20260903055519 24 0 0.0 0.0 0.00 0.20 0.00 100 1013.7
20260903055019 24 0 0.0 0.0 0.00 0.20 0.00 100 1013.8
20260903054541 24 0 0.0 0.0 0.00 0.20 0.00 100 1013.8
20260903054021 24 0 0.0 0.0 0.00 0.20 0.00 100 1013.9
20260903053518 24 0 0.0 0.0 0.00 0.20 0.00 100 1014.0
20260903053040 24 0 0.0 0.0 0.00 0.20 0.00 100 1013.9
20260903052519 24 0 0.0 0.0 0.00 0.20 0.00 100 1014.0
20260903052019 24 0 0.0 0.0 0.00 0.20 0.00 100 1014.0
20260903051540 24 0 0.0 0.0 0.00 0.20 0.00 100 1013.9
20260903051021 25 0 0.0 0.0 0.00 0.20 0.00 100 1014.1
20260903050520 25 0 0.0 0.0 0.00 0.20 0.00 100 1014.2
20260903050039 25 0 0.0 0.0 0.00 0.20 0.00 100 1014.2
20260903045520 25 0 0.0 0.0 0.00 0.20 0.00 100 1014.2
20260903045022 25 0 0.0 0.0 0.00 0.20 0.00 100 1014.4
20260903044549 25 0 0.0 0.0 0.00 0.20 0.00 100 1014.4
20260903044022 25 0 0.0 0.0 0.00 0.20 0.00 100 1014.2
20260903043520 25 0 0.0 0.0 0.00 0.20 0.00 100 1014.2
20260903043040 25 0 0.0 0.0 0.00 0.20 0.00 100 1014.2
20260903042524 25 0 0.0 0.0 0.00 0.20 0.00 100 1014.3
20260903042019 25 0 0.0 0.0 0.00 0.20 0.00 100 1014.3
20260903041546 25 0 0.0 0.0 0.00 0.20 0.00 100 1014.4
20260903041019 25 0 0.0 0.0 0.00 0.20 0.00 100 1014.3
20260903040519 25 0 0.0 0.0 0.00 0.20 0.00 100 1014.4
20260903040043 25 0 0.0 0.0 0.00 0.20 0.00 100 1014.4
20260903035520 25 0 0.0 0.0 0.00 0.20 0.20 100 1014.5
20260903035022 25 0 0.0 0.0 0.00 0.20 0.20 100 1014.5
20260903034540 25 0 0.0 0.0 0.00 0.20 0.20 100 1014.4
20260903034022 25 0 0.0 0.0 0.00 0.20 0.20 100 1014.5
20260903033519 25 0 0.0 0.0 0.00 0.20 0.20 100 1014.4
20260903033039 25 0 0.0 0.0 0.00 0.20 0.20 100 1014.3
20260903032518 25 0 0.0 0.0 0.00 0.20 0.20 100 1014.3
20260903032018 25 0 0.0 0.0 0.00 0.20 0.20 100 1014.4
20260903031535 25 0 0.0 0.0 0.00 0.20 0.20 100 1014.4
20260903031020 25 0 0.0 0.0 0.00 0.20 0.20 100 1014.5
20260903030520 25 0 0.0 0.0 0.00 0.20 0.20 100 1014.6
20260903030037 25 0 0.0 0.0 0.00 0.20 0.20 100 1014.6
20260903025526 25 0 0.0 0.0 0.00 0.20 0.20 100 1014.6
20260903025019 25 0 0.0 0.0 0.00 0.20 0.20 100 1014.6
20260903024543 25 0 0.0 0.0 0.00 0.20 0.20 100 1014.5
20260903024020 25 0 0.0 0.0 0.00 0.20 0.20 100 1014.5
20260903023519 25 0 0.0 0.0 0.00 0.20 0.20 100 1014.6
20260903023043 25 0 0.0 0.0 0.00 0.20 0.20 100 1014.6
20260903022519 25 0 0.0 0.0 0.00 0.20 0.20 100 1014.6
20260903022021 25 0 0.0 0.0 0.00 0.20 0.20 100 1014.6
20260903021539 25 0 0.0 0.0 0.00 0.20 0.20 99 1014.5
20260903021021 26 0 0.0 0.0 0.00 0.20 0.20 99 1014.5
20260903020522 26 0 0.0 0.0 0.00 0.20 0.20 99 1014.4
20260903020048 26 0 0.0 0.0 0.00 0.20 0.20 99 1014.5
20260903015520 26 0 0.0 3.2 0.00 0.20 0.20 99 1014.5
20260903015020 26 0 0.0 3.2 0.00 0.20 0.20 99 1014.4
20260903014554 26 0 0.0 3.2 0.00 0.20 0.20 98 1014.4
20260903014026 26 0 0.0 0.0 0.00 0.20 0.20 98 1014.3
20260903013519 26 0 0.0 0.0 0.00 0.20 0.20 98 1014.2
20260903013051 26 0 0.0 0.0 0.00 0.20 0.20 98 1014.3
20260903012522 26 0 0.0 0.0 0.00 0.20 0.20 97 1014.4
20260903012020 26 0 0.0 0.0 0.00 0.20 0.20 97 1014.3
20260903011602 26 0 0.0 0.0 0.00 0.20 0.20 96 1014.4
20260903011026 26 0 0.0 0.0 0.00 0.20 0.20 96 1014.4
20260903010520 26 0 0.0 1.6 0.00 0.20 0.20 96 1014.5
20260903010058 26 0 0.0 1.6 0.00 0.20 0.20 96 1014.4
20260903005521 26 299 0.0 3.2 0.00 0.20 0.20 96 1014.5
20260903005020 26 0 0.0 3.2 0.00 0.20 0.20 95 1014.4
20260903004540 26 319 0.0 4.8 0.00 0.20 0.20 95 1014.5
20260903004020 26 0 0.0 4.8 0.00 0.20 0.20 96 1014.5
20260903003519 26 15 0.0 4.8 0.00 0.20 0.20 97 1014.4
20260903003040 26 0 0.0 0.0 0.00 0.20 0.20 97 1014.4
20260903002522 26 0 0.0 0.0 0.00 0.20 0.20 96 1014.4
20260903002023 26 0 0.0 0.0 0.00 0.20 0.20 96 1014.3
20260903001552 26 0 0.0 0.0 0.00 0.20 0.20 96 1014.3
20260903001021 26 0 0.0 0.0 0.00 0.20 0.20 96 1014.1
20260903000520 26 0 0.0 0.0 0.00 0.20 0.20 96 1014.2
20260903000046 27 0 0.0 0.0 0.00 0.20 0.20 95 1013.9
20260902235520 27 0 0.0 0.0 0.00 0.20 0.20 95 1014.0
20260902235019 27 0 0.0 0.0 0.00 0.20 0.20 95 1014.0
20260902234543 27 0 0.0 0.0 0.00 0.20 0.20 94 1014.0
20260902234020 27 0 0.0 3.2 0.00 0.20 0.20 94 1014.1
20260902233521 27 0 0.0 3.2 0.00 0.20 0.20 94 1014.2
20260902233040 27 0 0.0 4.8 0.00 0.20 0.20 94 1014.2
20260902232521 27 0 0.0 4.8 0.00 0.20 0.20 94 1014.0
20260902232021 27 0 0.0 3.2 0.00 0.20 0.20 94 1013.9
20260902231544 27 0 0.0 3.2 0.00 0.20 0.20 94 1013.8
20260902231024 27 0 0.0 3.2 0.00 0.20 0.20 94 1013.7
20260902230523 27 0 0.0 3.2 0.00 0.20 0.20 94 1013.7
20260902230051 27 0 0.0 3.2 0.00 0.20 0.20 94 1013.7
20260902225524 27 356 0.0 3.2 0.00 0.20 0.20 94 1013.5
20260902225020 27 1 0.0 3.2 0.00 0.20 0.20 94 1013.5
20260902224542 27 0 0.0 3.2 0.00 0.20 0.20 94 1013.4
20260902224021 27 0 0.0 4.8 0.00 0.20 0.20 94 1013.3
20260902223519 27 0 0.0 4.8 0.00 0.20 0.20 94 1013.1
20260902223042 27 170 0.0 1.6 0.00 0.20 0.20 93 1013.1
20260902222519 27 0 0.0 1.6 0.00 0.20 0.20 93 1013.2
20260902222024 27 0 0.0 3.2 0.00 0.20 0.20 92 1013.1
20260902221536 27 345 0.0 6.4 0.00 0.20 0.20 92 1013.1
20260902221022 27 0 0.0 6.4 0.00 0.20 0.20 91 1013.3
20260902220520 27 0 0.0 6.4 0.00 0.20 0.20 91 1013.2
20260902220042 28 1 0.0 6.4 0.00 0.20 0.20 91 1013.2
20260902215520 28 4 0.0 6.4 0.00 0.20 0.20 90 1013.4
20260902215022 28 0 0.0 9.7 0.00 0.20 0.20 90 1013.4
20260902214545 28 1 0.0 9.7 0.00 0.20 0.20 89 1013.3
20260902214018 28 328 1.6 9.7 0.00 0.20 0.20 89 1013.2
20260902213518 28 0 0.0 9.7 0.00 0.20 0.20 89 1013.2
20260902213039 28 296 1.6 8.0 0.00 0.20 0.20 88 1013.3
20260902212520 28 319 1.6 8.0 0.00 0.20 0.20 88 1013.3
20260902212020 28 18 1.6 8.0 0.00 0.20 0.20 88 1013.4
20260902211543 28 30 1.6 8.0 0.00 0.20 0.20 88 1013.6
20260902211020 29 357 1.6 8.0 0.00 0.20 0.20 87 1013.7
20260902210521 29 12 3.2 8.0 0.00 0.20 0.20 86 1013.6
20260902210040 29 8 3.2 8.0 0.00 0.20 0.20 86 1013.5